Flag for Belgium Weather past 2 weeks in Kortrijk, Belgium

Now
79 °F

Sunny.


Feels Like: 80 °F
Forecast: 62 / 77 °F
Wind: 10 mph from East

Location: Lille Airport

Current Time: Sep 17, 2014 at 6:12:37 PM

Latest Report: Sep 17, 2014 at 5:30 PM


Visibility: 10 mi

Pressure: 29.80 "Hg

Humidity: 51%

Dew point: 59 °F

Location of KortrijkLocation

Historic Weather in Kortrijk — Graph

°F

Kortrijk temperature yesterday

Maximum temperature yesterday: 77 °F (at 3:00 PM)
Minimum temperature yesterday: 54 °F (at 6:00 AM)
Average temperature yesterday: 65 °F

Past Weeks' High & Low Weather Summary

 TemperatureHumidityPressure
High81 °F (Sep 17, 3:30 PM)100% (Sep 3, 6:30 AM)30.27 "Hg (Sep 3, 6:30 AM)
Low52 °F (Sep 9, 4:00 AM)48% (Sep 17, 3:00 PM)29.80 "Hg (Sep 17, 3:00 PM)
Average63 °F79%30.06 "Hg
* Reported Sep 2 5:00 PM — Sep 17 5:00 PM, Kortrijk, Weather by CustomWeather, © 2014

Note: Actual official high and low records may vary slightly from our data, if they occured in-between our weather recording intervals... More about our weather records

Advertising

Kortrijk weather history for previous 24 hours

 ConditionsComfort  
Time TempWeatherWind HumidityBarometerVisibility
5:00 PM
Sep 17
79 °FSunny.9 mph51%29.80 "Hg10 mi
4:00 PM79 °FPassing clouds.12 mph48%29.80 "HgN/A
3:30 PM81 °FPassing clouds.10 mph48%29.80 "HgN/A
3:00 PM79 °FPassing clouds.10 mph48%29.80 "HgN/A
2:30 PM79 °FPassing clouds.9 mph51%29.83 "HgN/A
2:00 PM77 °FPassing clouds.10 mph54%29.83 "HgN/A
1:30 PM77 °FPassing clouds.10 mph54%29.83 "HgN/A
1:00 PM77 °FClear.12 mph57%29.83 "Hg6 mi
12:30 PM75 °FClear.9 mph61%29.86 "Hg6 mi
11:30 AM72 °FClear.7 mph69%29.86 "Hg4 mi
11:00 AM70 °FClear.6 mph73%29.86 "Hg4 mi
10:30 AM68 °FClear.5 mph73%29.86 "Hg4 mi
10:00 AM64 °FClear.6 mph83%29.86 "Hg4 mi
9:30 AM63 °FClear.5 mph83%29.86 "Hg3 mi
9:00 AM63 °FClear.5 mph83%29.86 "Hg3 mi
8:30 AM61 °FFog.6 mph88%29.86 "Hg3 mi
8:00 AM59 °FFog.3 mph88%29.86 "Hg2 mi
7:30 AM59 °FFog.2 mph88%29.86 "Hg2 mi
7:00 AM59 °FFog.6 mph88%29.86 "Hg2 mi
6:30 AM59 °FClear.5 mph88%29.86 "Hg6 mi
6:00 AM61 °FClear.6 mph83%29.86 "Hg6 mi
5:30 AM59 °FClear.5 mph88%29.89 "Hg5 mi
5:00 AM61 °FClear.3 mph83%29.89 "Hg4 mi
4:30 AM61 °FClear.5 mph83%29.89 "Hg4 mi
4:00 AM61 °FClear.2 mph83%29.89 "Hg4 mi
3:30 AM61 °FClear.6 mph83%29.89 "Hg5 mi
3:00 AM61 °FClear.6 mph88%29.89 "Hg5 mi
2:30 AM61 °FClear.3 mph83%29.89 "Hg4 mi
2:00 AM63 °FClear.6 mph83%29.92 "Hg4 mi
1:30 AM63 °FClear.5 mph83%29.92 "Hg4 mi
1:00 AM63 °FClear.3 mph83%29.92 "Hg4 mi
12:30 AM63 °FClear.5 mph83%29.92 "Hg5 mi
12:00 AM63 °FClear.6 mph83%29.92 "Hg10 mi
11:30 PM
Sep 16
64 °FClear.7 mph83%29.92 "Hg10 mi
11:00 PM64 °FClear.6 mph78%29.92 "Hg10 mi
10:30 PM64 °FClear.7 mph78%29.92 "Hg10 mi
10:00 PM66 °FClear.6 mph73%29.92 "Hg10 mi
9:30 PM68 °FClear.6 mph69%29.92 "Hg10 mi
9:00 PM68 °FClear.5 mph69%29.92 "Hg10 mi
8:30 PM68 °FSunny.5 mph69%29.92 "Hg10 mi
8:00 PM70 °FSunny.5 mph64%29.92 "Hg10 mi
7:30 PM72 °FPassing clouds.5 mph61%29.92 "HgN/A
7:00 PM73 °FPassing clouds.5 mph57%29.92 "HgN/A
6:30 PM75 °FPassing clouds.5 mph54%29.92 "HgN/A
6:00 PM75 °FPassing clouds.6 mph50%29.92 "HgN/A
Weather by CustomWeather, © 2014

See weather overviewHow to use our weather pages